Location: Zengebe
(1.4833°N, 32.5167°E)
Time: 01:12:54
(UTC+00:00)

Daily predictions for brighter satellites

Satellite Brightness Start Highest point End
(mag) Time Altitude Azimuth Time Altitude Azimuth Time Altitude Azimuth
Cosmos 2344 4.5 01:00:16 37° NNW 01:00:16 37° NNW 01:04:51 10° N
CZ-2C R/B 4.3 01:01:46 10° NE 01:04:52 29° ENE 01:04:52 29° ENE
USA 234 3.6 01:02:59 10° NE 01:08:12 61° NE 01:08:12 61° NE
Ariane H10+ 3.7 01:25:43 44° SE 01:25:43 44° SE 01:35:06 10° E
GPS 2-15 Rocket1 4.4 01:32:43 38° E 01:32:43 38° E 01:35:46 10° ENE
USA 229 DEB 3.8 01:24:55 10° NNW 01:32:36 89° ENE 01:40:20 10° SSE
USA 229 3.9 01:25:01 10° NNW 01:32:43 88° ENE 01:40:27 10° SSE
H-2A R/B 4.3 01:37:16 18° N 01:37:16 18° N 01:38:23 10° N
NOSS 3-1 (C) 4.1 01:25:29 10° NNW 01:34:18 81° WSW 01:43:12 10° SSE
Ariane H10-3 3.7 01:38:10 25° ESE 01:38:10 25° ESE 01:41:19 10° E
ADEOS 3.7 01:33:19 10° NNE 01:38:10 73° ENE 01:38:10 73° ENE
Delta 2 Rocket 4.4 01:39:37 56° ESE 01:39:37 56° ESE 01:44:43 10° ENE
NOSS 3-1 (A) 4.5 01:33:46 10° NNW 01:42:31 74° ENE 01:51:24 10° SSE
GEOS 3 Rocket 3.7 01:38:10 10° SE 01:43:11 70° ENE 01:48:16 10° NNW
Cosmos 2237 Rocket 3.1 01:52:41 33° NW 01:52:41 33° NW 01:56:27 10° N
Sich 1 3.8 01:50:25 42° SE 01:51:16 48° E 01:55:26 10° NNE
Iridium 4 Rocket 3.4 01:53:15 63° NNW 01:53:15 63° NNW 01:57:25 10° N
Cosmos 1484 Rocket 4.3 01:50:58 10° NE 01:54:38 35° E 01:55:59 27° SE
Delta 168 3.7 01:57:01 37° ENE 01:57:01 37° ENE 01:59:26 10° ENE
STARLINK-1194 4.0 02:00:33 54° ESE 02:00:33 54° ESE 02:04:19 10° NE
Ariane H10+ 3.5 02:01:45 45° WNW 02:03:36 71° N 02:12:06 10° E
Cosmos 1515 Rocket 3.4 02:00:00 10° N 02:04:18 87° E 02:05:11 56° S
STARLINK-1193 3.7 02:04:23 62° SE 02:04:27 62° SE 02:08:21 10° NE
STARLINK-1184 3.5 02:08:11 69° SSE 02:08:24 71° SE 02:12:19 10° NE
FENGYUN 3A 4.3 02:04:28 10° NNE 02:09:45 54° ESE 02:15:03 10° S
Atlas Centaur 2 2.5 02:08:33 40° WNW 02:10:06 50° NW 02:15:02 10° NE
STARLINK-1127 3.4 02:11:59 71° S 02:12:21 81° ESE 02:16:18 10° NE
ATLAS 2A CENTAUR R/B 2.5 02:10:45 40° W 02:12:31 60° NW 02:15:28 10° NE
SL-16 R/B 2.1 02:10:53 32° SSW 02:13:37 88° WNW 02:19:15 10° NNE
STARLINK-1142 3.4 02:15:50 66° SW 02:16:21 88° NW 02:20:18 10° NNE
CZ-4B R/B 3.1 02:14:34 10° NNE 02:18:05 59° ESE 02:20:03 25° S
ARIANE 5 DEB (SYLDA) 4.5 02:05:16 22° W 02:18:37 88° N 02:24:23 10° E
Cosmos 1844 Rocket 2.5 02:14:25 10° NNW 02:19:57 73° WSW 02:25:29 10° S
STARLINK-1137 3.4 02:19:44 59° SW 02:20:24 78° NW 02:24:20 10° NNE
STARLINK-1195 3.4 02:23:42 50° WSW 02:24:32 68° NW 02:28:27 10° NNE
Sylda 4400 3.6 02:27:50 35° S 02:28:17 37° SSE 02:32:45 10° E
STARLINK-1152 3.6 02:27:45 43° WSW 02:28:44 59° NW 02:32:38 10° NNE
SJ-12 4.3 02:27:13 10° NNE 02:31:19 65° ESE 02:35:26 10° S
Cosmos 1633 Rocket 2.9 02:31:03 12° S 02:35:02 83° W 02:39:22 10° N
Ariane H10 1.8 02:35:14 39° WSW 02:36:03 66° S 02:38:56 10° E
ARIANE 5 DEB (SYLDA) 3.3 02:36:11 32° SW 02:37:22 48° S 02:42:38 10° E
Ariane H10+ 3.7 02:35:58 23° W 02:38:29 72° N 02:56:06 10° E
Cosmos 1689 Rocket 3.0 02:37:27 10° SSE 02:40:17 49° E 02:43:06 10° N
STARLINK-1176 4.2 02:39:02 28° WSW 02:40:36 40° NW 02:44:29 10° NNE
Cosmos 1666 Rocket 3.7 02:37:54 18° SSW 02:40:59 50° W 02:45:18 10° N
CZ-3A R/B 2.4 02:40:22 26° SW 02:41:59 63° SSE 02:50:11 10° ENE
Centaur AC-72 4.1 02:34:27 12° W 02:42:53 33° NNW 02:48:09 10° NE
CZ-2C R/B 4.2 02:41:45 10° NW 02:44:14 14° WNW 02:44:14 14° WNW
Cosmos 2123 Rocket 4.0 02:40:56 10° N 02:47:09 86° W 02:53:21 10° S
ALOS 2.7 02:48:14 10° N 02:52:36 41° WNW 02:56:59 10° SSW
GPS 2-14 Rocket1 4.4 03:02:13 13° SW 03:03:51 16° SSW 03:06:18 10° SSE
Cosmos 405 3.0 03:00:34 10° NNW 03:04:02 56° W 03:07:30 10° S
Cosmos 2228 Rocket 4.0 03:00:34 10° NW 03:04:28 28° W 03:08:24 10° SSW
CZ-4B R/B 2.9 03:04:27 14° WSW 03:05:06 15° WSW 03:06:53 10° WNW
Cosmos 1782 4.3 03:03:43 10° NW 03:06:23 17° W 03:09:03 10° SW
OAO 2 Rocket 3.8 03:02:15 13° WSW 03:06:26 47° NW 03:11:09 10° NE
SL-4 R/B 1.9 03:03:30 10° NW 03:07:48 77° SW 03:11:45 10° SSE
Cosmos 494 Rocket 4.0 03:03:44 10° SSW 03:09:00 81° WNW 03:14:15 10° N
Cosmos 1802 Rocket 4.3 03:06:48 10° S 03:12:55 74° E 03:19:01 10° N
Genesis I 3.2 03:09:20 10° SSW 03:13:15 81° WNW 03:17:10 10° NNE
GPS 2-15 Rocket1 4.3 03:10:56 10° W 03:15:16 35° NNW 03:19:40 10° NE
Okean O Rocket 2.5 03:11:17 10° NNE 03:15:30 52° ESE 03:19:43 10° S
STARLINK-1164 4.3 03:13:47 10° SSW 03:17:50 54° SE 03:21:52 10° NE
Meteor 1-27 Rocket 4.0 03:13:03 10° N 03:18:32 72° E 03:24:05 10° S
STARLINK-1182 4.0 03:18:42 10° SSW 03:22:48 64° SE 03:26:53 10° NE
Sylda 5 4.0 03:21:17 10° W 03:40:58 52° S 03:45:25 10° ESE
